Simultaneous Nadir Overpasses (SNOs) Predictions

Prediction of SNOs between GOES-17 and TERRA Satellite Orbit:

Table of predicted SNOs for the next 14.0 days since TLE Epoch: 3/4/2023
Index Date Time (GOES-17) GOES-17 Lat,Lon TERRA Lat,Lon Distance(km) Time Diff (sec)
1 03/04/2023 17:07:15 -0.00,-104.71 -0.11,-104.06 73.60 80
2 03/05/2023 05:27:41 -0.00,-104.69 -0.93,-109.03 493.22 80
3 03/07/2023 05:11:42 0.00,-104.70 -0.10,-105.17 53.57 80
4 03/09/2023 04:53:02 0.00,-104.70 0.71,-101.30 386.48 80
5 03/09/2023 17:13:19 -0.00,-104.73 0.28,-106.23 170.43 80
6 03/11/2023 16:59:58 -0.00,-104.74 -0.50,-102.36 269.84 80
7 03/12/2023 05:20:23 0.00,-104.71 -0.56,-107.32 296.46 80
8 03/14/2023 05:01:42 0.00,-104.71 0.28,-103.45 143.44 80
9 03/14/2023 17:21:58 -0.00,-104.73 0.77,-108.37 413.91 80
10 03/16/2023 17:08:36 -0.00,-104.73 -0.03,-104.50 25.88 80
